FREGAT DEB, 45889

Orbit data source: Space-Track

FREGAT DEB, 45889 is space debris in LEO originally from a launch on Mon, 18 Jul 2011 UTC launched from the Tyuratam Missile And Space Complex (TTMTR). Debris objects in space refer to the collection of defunct objects orbiting the Earth. Examples of debris include non-operational satellites, rocket bodies, and fragments generated from explosions, collisions, or faulty payload assembly.

Loading next visibility...
FREGAT DEB details
Identifier
45889, 2011-037DJ
Orbit
LEO
Last TLE update15 hours ago
Origin
Flag of CISVVKO VKS (CIS)
ManufacturerLavochkin
MissionSpacecraft
Bus & MotorUnknown
MassUnknown
Launch date (UTC)
2011-07-18 (13 years ago)
Launch vehicleUnknown
Launch site
Tyuratam Missile And Space Complex (TTMTR)
Object type
Payload
Rocket body
Debris
Shape & HBRUnknown
Radar Cross SectionSmall (<0.1 m²)

Expand to show TLE details & history

TLE from 15 hours ago
0 FREGAT DEB
1 45889U 11037DJ  24347.71952496  .00052780  00000-0  86329-2 0  9991
2 45889  51.3640 231.8796 1170210 183.6230 175.5550 12.80579138188296
Epoch: 2024-12-12T17:16Z
Definitive object data (Epoch: 2024-12-12T17:16:06.956Z)
Latitude
Longitude-109.0452°
Altitude2,240.647 km
Speed6.394 km/s
True Right ascension15h 27m 31s
True Declination0° 00' 00"
Sunlit
Object was in daylight at TLE epoch
Visualization TLE readout
Latitude41.6156°
Longitude-66.17309°
Altitude1,816.224 km
Speed6.763 km/s
Apparent Right ascension18h 40m 11s
Apparent Declination7° 00' 34"
Sunlit
Object is in daylight
Visualization observer readout
Local Sidereal Time07:06:43
Azimuth8.972° NNE
Elevation-42.676°
Doppler factor1
Orbital elements
Apogee altitude2,242.783 km
Perigee altitude436.499 km
Semi-major axis7,717.778 km
Eccentricity0.117021
Inclination51.364°
RAAN231.8796°
Arg. of periapsis183.623°
True anomaly176.46143°
Mean anomaly175.555°
Eccentric anomaly176.02033°
Mean motion3.20114 °/min
BSTAR0.0086329
Orbital period112.46 mins
Loading maneuver chart data...
Loading historical data...
Loading historical data...
Loading historical data...
Loading historical data...
Loading historical data...
Loading historical data...
Loading historical data...

FREGAT DEB Visibility forecast

Observer location: undefined°, undefined

Span
Click to sort rows by Start time (UTC) header in descending order
Start Az.
Max El. time (UTC)
Max El. Az.
Max El.
End time (UTC)
End Az.
5 mins2024-12-13 15:53:05.195Z126.776° SE2024-12-13 15:56:05.195Z113.129° SE10.816°2024-12-13 15:58:05.195Z103.765° ESE
20 mins2024-12-13 17:42:05.195Z192.66° SSW2024-12-13 17:53:05.195Z127.916° SE35.114°2024-12-13 18:02:05.195Z64.877° ENE
20 mins2024-12-13 19:40:05.195Z238.386° WSW2024-12-13 19:51:05.195Z298.834° NW44.37°2024-12-13 20:00:05.195Z52.188° ENE
16 mins2024-12-13 21:42:05.195Z279.501° WNW2024-12-13 21:51:05.195Z345.992° N34.235°2024-12-13 21:58:05.195Z54.43° ENE
12 mins2024-12-13 23:44:05.195Z307.342° NW2024-12-13 23:51:05.195Z14.894° NNE31.892°2024-12-13 23:56:05.195Z76.144° E
9 mins2024-12-14 01:44:05.195Z306.652° NW2024-12-14 01:49:05.195Z310.549° NW44.7°2024-12-14 01:53:05.195Z127.639° SE
|